Time,TemperatureF,DewpointF,PressureIn,WindDirection,WindDirectionDegrees,WindSpeedMPH,WindSpeedGustMPH,Humidity,HourlyPrecipIn,Conditions,Clouds,dailyrainin,SoftwareType,DateUTC
2013-01-04 00:22:00,26.4,18.0,30.11,SE,137,0.0,2.0,70,0.00,,,0.00,weatherlink.com 1.10,2013-01-04 05:22:00,
2013-01-04 00:37:00,26.2,18.0,30.11,SE,144,1.0,3.0,70,0.00,,,0.00,weatherlink.com 1.10,2013-01-04 05:37:00,
2013-01-04 00:52:00,26.5,18.0,30.11,SE,124,0.0,2.0,70,0.00,,,0.00,weatherlink.com 1.10,2013-01-04 05:52:00,
2013-01-04 01:07:00,26.5,18.0,30.11,ESE,117,1.0,3.0,70,0.00,,,0.00,weatherlink.com 1.10,2013-01-04 06:07:00,
2013-01-04 01:22:00,26.6,18.0,30.11,SE,144,0.0,1.0,70,0.00,,,0.00,weatherlink.com 1.10,2013-01-04 06:22:00,
2013-01-04 01:37:00,26.6,18.0,30.11,SE,140,0.0,1.0,70,0.00,,,0.00,weatherlink.com 1.10,2013-01-04 06:37:00,
2013-01-04 01:52:00,26.6,18.0,30.11,ESE,113,0.0,1.0,70,0.00,,,0.00,weatherlink.com 1.10,2013-01-04 06:52:00,
2013-01-04 02:07:00,26.7,18.0,30.11,ESE,105,0.0,1.0,70,0.00,,,0.00,weatherlink.com 1.10,2013-01-04 07:07:00,
2013-01-04 02:22:00,26.9,18.0,30.11,East,98,1.0,2.0,70,0.00,,,0.00,weatherlink.com 1.10,2013-01-04 07:22:00,
2013-01-04 02:37:00,26.4,18.0,30.12,SE,132,0.0,1.0,71,0.00,,,0.00,weatherlink.com 1.10,2013-01-04 07:37:00,
2013-01-04 02:52:00,26.0,18.0,30.12,SE,132,1.0,2.0,72,0.00,,,0.00,weatherlink.com 1.10,2013-01-04 07:52:00,
2013-01-04 03:07:00,26.3,18.0,30.12,SE,138,0.0,3.0,72,0.00,,,0.00,weatherlink.com 1.10,2013-01-04 08:07:00,
2013-01-04 03:22:00,26.2,18.0,30.12,SSE,152,0.0,3.0,72,0.00,,,0.00,weatherlink.com 1.10,2013-01-04 08:22:00,
2013-01-04 03:37:00,26.2,18.0,30.12,SE,141,0.0,3.0,72,0.00,,,0.00,weatherlink.com 1.10,2013-01-04 08:37:00,
2013-01-04 03:52:00,25.7,18.0,30.12,SE,145,0.0,2.0,73,0.00,,,0.00,weatherlink.com 1.10,2013-01-04 08:52:00,
2013-01-04 04:07:00,25.4,18.0,30.12,SE,136,0.0,1.0,74,0.00,,,0.00,weatherlink.com 1.10,2013-01-04 09:07:00,
2013-01-04 04:37:00,27.8,20.0,30.12,ESE,110,0.0,3.0,72,0.00,,,0.00,weatherlink.com 1.10,2013-01-04 09:37:00,
2013-01-04 04:52:00,28.3,20.0,30.12,East,89,1.0,2.0,70,0.00,,,0.00,weatherlink.com 1.10,2013-01-04 09:52:00,
2013-01-04 05:07:00,28.4,20.0,30.12,ENE,78,0.0,2.0,71,0.00,,,0.00,weatherlink.com 1.10,2013-01-04 10:07:00,
2013-01-04 05:22:00,28.4,20.0,30.12,East,85,0.0,1.0,71,0.00,,,0.00,weatherlink.com 1.10,2013-01-04 10:22:00,
2013-01-04 05:37:00,28.5,21.0,30.12,ESE,112,1.0,2.0,72,0.00,,,0.00,weatherlink.com 1.10,2013-01-04 10:37:00,
2013-01-04 05:52:00,28.5,21.0,30.13,East,79,0.0,1.0,72,0.00,,,0.00,weatherlink.com 1.10,2013-01-04 10:52:00,
2013-01-04 06:07:00,28.8,21.0,30.13,East,84,1.0,1.0,72,0.00,,,0.00,weatherlink.com 1.10,2013-01-04 11:07:00,
2013-01-04 06:22:00,29.2,21.0,30.13,East,100,0.0,1.0,71,0.00,,,0.00,weatherlink.com 1.10,2013-01-04 11:22:00,
2013-01-04 06:52:00,30.0,22.0,30.13,SE,124,2.0,4.0,71,0.00,,,0.00,weatherlink.com 1.10,2013-01-04 11:52:00,
2013-01-04 07:07:00,30.2,22.0,30.13,SE,134,0.0,2.0,71,0.00,,,0.00,weatherlink.com 1.10,2013-01-04 12:07:00,
2013-01-04 07:22:00,30.5,22.0,30.12,SE,134,1.0,3.0,70,0.00,,,0.00,weatherlink.com 1.10,2013-01-04 12:22:00,
2013-01-04 07:37:00,30.5,22.0,30.12,ESE,112,0.0,2.0,70,0.00,,,0.00,weatherlink.com 1.10,2013-01-04 12:37:00,
2013-01-04 07:52:00,30.4,22.0,30.12,East,98,0.0,4.0,70,0.00,,,0.00,weatherlink.com 1.10,2013-01-04 12:52:00,
2013-01-04 08:07:00,30.3,21.0,30.12,SSE,150,0.0,4.0,69,0.00,,,0.00,weatherlink.com 1.10,2013-01-04 13:07:00,
2013-01-04 08:22:00,30.2,21.0,30.13,ENE,75,0.0,2.0,69,0.00,,,0.00,weatherlink.com 1.10,2013-01-04 13:22:00,
2013-01-04 08:37:00,30.4,21.0,30.13,East,81,0.0,3.0,68,0.00,,,0.00,weatherlink.com 1.10,2013-01-04 13:37:00,
2013-01-04 09:07:00,31.0,21.0,30.14,ESE,121,0.0,3.0,66,0.00,,,0.00,weatherlink.com 1.10,2013-01-04 14:07:00,
2013-01-04 09:22:00,31.5,21.0,30.14,SE,126,0.0,3.0,66,0.00,,,0.00,weatherlink.com 1.10,2013-01-04 14:22:00,
2013-01-04 09:37:00,32.0,21.0,30.14,East,94,0.0,3.0,64,0.00,,,0.00,weatherlink.com 1.10,2013-01-04 14:37:00,
2013-01-04 09:52:00,33.0,21.0,30.14,SE,125,2.0,4.0,62,0.00,,,0.00,weatherlink.com 1.10,2013-01-04 14:52:00,
2013-01-04 10:07:00,32.6,22.0,30.13,North,9,1.0,4.0,64,0.00,,,0.00,weatherlink.com 1.10,2013-01-04 15:07:00,
2013-01-04 10:23:00,33.3,22.0,30.13,ENE,70,1.0,3.0,63,0.00,,,0.00,weatherlink.com 1.10,2013-01-04 15:23:00,
2013-01-04 10:38:00,33.1,21.0,30.12,SSE,156,1.0,6.0,62,0.00,,,0.00,weatherlink.com 1.10,2013-01-04 15:38:00,
2013-01-04 10:53:00,33.1,21.0,30.11,SE,140,1.0,4.0,62,0.00,,,0.00,weatherlink.com 1.10,2013-01-04 15:53:00,
2013-01-04 11:08:00,32.9,21.0,30.10,ESE,112,2.0,7.0,62,0.00,,,0.00,weatherlink.com 1.10,2013-01-04 16:08:00,
2013-01-04 11:23:00,33.2,21.0,30.09,South,172,2.0,3.0,62,0.00,,,0.00,weatherlink.com 1.10,2013-01-04 16:23:00,
2013-01-04 11:38:00,33.3,22.0,30.09,East,96,0.0,3.0,63,0.00,,,0.00,weatherlink.com 1.10,2013-01-04 16:38:00,
2013-01-04 11:53:00,33.3,22.0,30.07,SE,145,2.0,4.0,63,0.00,,,0.00,weatherlink.com 1.10,2013-01-04 16:53:00,
2013-01-04 12:08:00,33.5,21.0,30.07,SSE,148,4.0,7.0,60,0.00,,,0.00,weatherlink.com 1.10,2013-01-04 17:08:00,
2013-01-04 12:23:00,33.1,20.0,30.06,WSW,250,2.0,6.0,60,0.00,,,0.00,weatherlink.com 1.10,2013-01-04 17:23:00,
2013-01-04 12:38:00,33.3,21.0,30.05,SSW,202,2.0,6.0,60,0.00,,,0.00,weatherlink.com 1.10,2013-01-04 17:38:00,
2013-01-04 12:53:00,33.5,21.0,30.05,SSE,153,4.0,5.0,61,0.00,,,0.00,weatherlink.com 1.10,2013-01-04 17:53:00,
2013-01-04 13:08:00,34.0,22.0,30.04,South,175,4.0,8.0,61,0.00,,,0.00,weatherlink.com 1.10,2013-01-04 18:08:00,
2013-01-04 13:23:00,35.7,21.0,30.03,ESE,110,2.0,4.0,56,0.00,,,0.00,weatherlink.com 1.10,2013-01-04 18:23:00,
2013-01-04 13:38:00,36.2,22.0,30.02,East,84,2.0,6.0,56,0.00,,,0.00,weatherlink.com 1.10,2013-01-04 18:38:00,
2013-01-04 13:53:00,36.3,22.0,30.02,SSE,155,1.0,5.0,56,0.00,,,0.00,weatherlink.com 1.10,2013-01-04 18:53:00,
2013-01-04 14:08:00,35.7,22.0,30.02,SSE,164,2.0,5.0,57,0.00,,,0.00,weatherlink.com 1.10,2013-01-04 19:08:00,
2013-01-04 14:23:00,36.8,22.0,30.01,SE,144,3.0,4.0,55,0.00,,,0.00,weatherlink.com 1.10,2013-01-04 19:23:00,
2013-01-04 14:38:00,35.7,22.0,30.00,South,171,1.0,5.0,57,0.00,,,0.00,weatherlink.com 1.10,2013-01-04 19:38:00,
2013-01-04 14:53:00,34.7,22.0,30.00,ESE,113,2.0,7.0,59,0.00,,,0.00,weatherlink.com 1.10,2013-01-04 19:53:00,
2013-01-04 15:08:00,34.2,21.0,30.00,South,190,0.0,5.0,60,0.00,,,0.00,weatherlink.com 1.10,2013-01-04 20:08:00,
2013-01-04 15:23:00,34.1,22.0,30.01,SSE,167,2.0,4.0,61,0.00,,,0.00,weatherlink.com 1.10,2013-01-04 20:23:00,
2013-01-04 15:38:00,34.5,21.0,30.00,South,170,2.0,5.0,59,0.00,,,0.00,weatherlink.com 1.10,2013-01-04 20:38:00,
2013-01-04 15:53:00,34.2,21.0,30.00,ESE,117,1.0,4.0,58,0.00,,,0.00,weatherlink.com 1.10,2013-01-04 20:53:00,
2013-01-04 16:08:00,33.6,20.0,30.00,East,80,1.0,5.0,59,0.00,,,0.00,weatherlink.com 1.10,2013-01-04 21:08:00,
2013-01-04 16:23:00,33.4,21.0,30.00,SE,132,1.0,5.0,60,0.00,,,0.00,weatherlink.com 1.10,2013-01-04 21:23:00,
2013-01-04 16:38:00,33.1,20.0,30.01,SE,136,0.0,3.0,60,0.00,,,0.00,weatherlink.com 1.10,2013-01-04 21:38:00,
2013-01-04 16:53:00,32.5,20.0,30.00,East,89,0.0,4.0,61,0.00,,,0.00,weatherlink.com 1.10,2013-01-04 21:53:00,
2013-01-04 17:08:00,32.3,20.0,30.01,ENE,57,0.0,2.0,62,0.00,,,0.00,weatherlink.com 1.10,2013-01-04 22:08:00,
2013-01-04 17:23:00,31.8,21.0,30.02,ESE,112,0.0,2.0,64,0.00,,,0.00,weatherlink.com 1.10,2013-01-04 22:23:00,
2013-01-04 17:38:00,31.8,21.0,30.02,SSE,160,1.0,4.0,64,0.00,,,0.00,weatherlink.com 1.10,2013-01-04 22:38:00,
2013-01-04 17:53:00,31.7,21.0,30.02,ESE,110,0.0,2.0,64,0.00,,,0.00,weatherlink.com 1.10,2013-01-04 22:53:00,
2013-01-04 18:08:00,31.6,21.0,30.02,SE,129,2.0,3.0,64,0.00,,,0.00,weatherlink.com 1.10,2013-01-04 23:08:00,
2013-01-04 18:23:00,31.6,21.0,30.03,ESE,121,1.0,3.0,65,0.00,,,0.00,weatherlink.com 1.10,2013-01-04 23:23:00,
2013-01-04 18:38:00,31.9,21.0,30.02,SSE,164,2.0,4.0,64,0.00,,,0.00,weatherlink.com 1.10,2013-01-04 23:38:00,
2013-01-04 18:54:00,31.9,21.0,30.03,SE,145,1.0,5.0,64,0.00,,,0.00,weatherlink.com 1.10,2013-01-04 23:54:00,
2013-01-04 19:08:00,31.7,21.0,30.03,SSE,163,0.0,3.0,64,0.00,,,0.00,weatherlink.com 1.10,2013-01-05 00:08:00,
2013-01-04 19:23:00,31.6,21.0,30.03,ESE,121,0.0,3.0,64,0.00,,,0.00,weatherlink.com 1.10,2013-01-05 00:23:00,
2013-01-04 19:38:00,31.6,21.0,30.03,ESE,102,1.0,2.0,64,0.00,,,0.00,weatherlink.com 1.10,2013-01-05 00:38:00,
2013-01-04 19:53:00,31.4,21.0,30.03,SE,134,1.0,2.0,65,0.00,,,0.00,weatherlink.com 1.10,2013-01-05 00:53:00,
2013-01-04 20:08:00,31.6,21.0,30.03,South,169,2.0,4.0,64,0.00,,,0.00,weatherlink.com 1.10,2013-01-05 01:08:00,
2013-01-04 20:24:00,31.7,21.0,30.02,SSE,149,1.0,4.0,64,0.00,,,0.00,weatherlink.com 1.10,2013-01-05 01:24:00,
2013-01-04 20:39:00,31.9,20.0,30.02,South,170,2.0,6.0,63,0.00,,,0.00,weatherlink.com 1.10,2013-01-05 01:39:00,
2013-01-04 20:54:00,31.6,20.0,30.02,SSE,167,1.0,4.0,63,0.00,,,0.00,weatherlink.com 1.10,2013-01-05 01:54:00,
2013-01-04 21:09:00,31.7,20.0,30.03,SSE,167,1.0,5.0,63,0.00,,,0.00,weatherlink.com 1.10,2013-01-05 02:09:00,
2013-01-04 21:24:00,31.6,20.0,30.03,SSE,165,2.0,4.0,63,0.00,,,0.00,weatherlink.com 1.10,2013-01-05 02:24:00,
2013-01-04 21:39:00,31.5,20.0,30.03,South,173,1.0,4.0,63,0.00,,,0.00,weatherlink.com 1.10,2013-01-05 02:39:00,
2013-01-04 21:54:00,31.4,20.0,30.03,South,179,4.0,5.0,63,0.00,,,0.00,weatherlink.com 1.10,2013-01-05 02:54:00,
2013-01-04 22:09:00,31.6,19.0,30.03,SSE,168,5.0,6.0,61,0.00,,,0.00,weatherlink.com 1.10,2013-01-05 03:09:00,
2013-01-04 22:24:00,31.6,19.0,30.04,ESE,120,0.0,6.0,61,0.00,,,0.00,weatherlink.com 1.10,2013-01-05 03:24:00,
2013-01-04 22:39:00,31.5,19.0,30.04,SE,146,2.0,6.0,61,0.00,,,0.00,weatherlink.com 1.10,2013-01-05 03:39:00,
2013-01-04 22:54:00,31.4,19.0,30.04,SSE,166,4.0,5.0,61,0.00,,,0.00,weatherlink.com 1.10,2013-01-05 03:54:00,
2013-01-04 23:09:00,31.3,19.0,30.05,ESE,123,1.0,6.0,60,0.00,,,0.00,weatherlink.com 1.10,2013-01-05 04:09:00,
2013-01-04 23:24:00,31.0,19.0,30.05,South,181,2.0,5.0,61,0.00,,,0.00,weatherlink.com 1.10,2013-01-05 04:24:00,
2013-01-04 23:43:00,31.0,18.0,30.05,South,173,0.0,5.0,60,0.00,,,0.00,weatherlink.com 1.10,2013-01-05 04:43:00,